{"data":{"norad_id":62657,"epoch":"2026-05-24T11:19:48.726336Z","epoch_age_seconds":120401,"freshness":"FRESH","line1":"1 62657U 25009BA  26144.47209174  .00006933  00000+0  25228-3 0  9995","line2":"2 62657  97.3944 226.3383 0002193  51.3441 308.7995 15.28548902 75304","mean_motion":15.28548902,"eccentricity":0.0002193,"inclination_deg":97.3944,"raan_deg":226.3383,"arg_perigee_deg":51.3441,"mean_anomaly_deg":308.7995,"bstar":0.00025228,"rev_number":7530,"period_min":94.206995806013,"perigee_km":478.64536530339,"apogee_km":481.65340971295,"semimajor_km":6858.2863875082,"source":"CELESTRAK","updated_at":"2026-05-25T13:38:03.160862Z"}}